Regional Weather Roundup
Issued by NWS Portland, ME

Home | Current Version | Previous Version | Text Only | Print | Product List | Glossary On
Versions: 1 2 3 4 5 6 7 8 9 10 11 12 13 14 15 16 17 18 19 20 21 22 23 24 25 26 27 28 29 30 31 32 33 34 35 36 37 38 39 40 41 42 43 44 45 46 47 48 49 50
000
ASUS41 KGYX 010010
RWRGYX
WEATHER ROUNDUP FOR MAINE AND NEW HAMPSHIRE
NATIONAL WEATHER SERVICE GRAY ME
800 PM EDT MON AUG 31 2015

MEZ002-005-006-010-012-015-018-020-021-024-026-027-029-010100-
MAINE

CITY           SKY/WX    TMP DP  RH WIND       PRES   REMARKS
PORTLAND       MOCLDY    78  64  61 W5        29.86R
6HR MIN TEMP:  77; 6HR MAX TEMP:  86;

SANFORD        CLEAR     75  61  60 W5        29.89R
BAR HARBOR     CLEAR     73  64  73 CALM      29.82R
WISCASSET      CLEAR     76  62  62 VRB3      29.87R
6HR MIN TEMP:  76; 6HR MAX TEMP:  85;

ROCKLAND       CLEAR     73  63  68 NW5       29.83R
FRYEBURG       CLEAR     76  62  62 W8        29.89R
6HR MIN TEMP:  76; 6HR MAX TEMP:  84;

LEWISTONAUBURN CLEAR     72 N/A N/A N5        29.88R
AUGUSTA        CLEAR     73  60  63 NW12      29.87R
6HR MIN TEMP:  73; 6HR MAX TEMP:  82;

WATERVILLE     CLEAR     73  59  60 SW5       29.84R
BANGOR         PTCLDY    73  59  61 W6        29.83R
6HR MIN TEMP:  73; 6HR MAX TEMP:  82;

GREENVILLE       N/A     66  59  78 CALM      29.86R
6HR MIN TEMP:  66; 6HR MAX TEMP:  74;

MILLINOCKET    MOCLDY    74  60  61 W9        29.81R
6HR MIN TEMP:  73; 6HR MAX TEMP:  79;

HOULTON        MOCLDY    71  54  54 NW9G23    29.76R
6HR MIN TEMP:  71; 6HR MAX TEMP:  78;

PRESQUE ISLE   CLEAR     68  50  52 NW10G16   29.78R
6HR MIN TEMP:  68; 6HR MAX TEMP:  77;

FRENCHVILLE    PTCLDY    64  53  67 NW17G25   29.79R
6HR MIN TEMP:  64; 6HR MAX TEMP:  74; 6HR PCP: TRACE;

CARIBOU        PTCLDY    67  53  61 NW10      29.78R
6HR MIN TEMP:  67; 6HR MAX TEMP:  78;

$$

NHZ002-005-008-009-011-012-014-010100-
NEW HAMPSHIRE

CITY           SKY/WX    TMP DP  RH WIND       PRES   REMARKS
PORTSMOUTH     PTCLDY    79  64  58 W6        29.87R
ROCHESTER      CLEAR     76  63  64 CALM      29.89R
6HR MIN TEMP:  76; 6HR MAX TEMP:  87;

NASHUA         PTCLDY    80  65  59 W3        29.91R
MANCHESTER     PTCLDY    81  63  54 W6        29.89R
6HR MIN TEMP:  81; 6HR MAX TEMP:  88;

CONCORD        MOCLDY    78  61  55 W3        29.91R
6HR MIN TEMP:  77; 6HR MAX TEMP:  87;

LACONIA        CLEAR     77  59  53 W3        29.90S
PLYMOUTH       FAIR      73  61  67 CALM      29.91R
BERLIN         CLEAR     70  60  70 VRB3      29.94R
6HR MIN TEMP:  70; 6HR MAX TEMP:  80;

WHITEFIELD     PTCLDY    68  62  81 CALM      29.96R
6HR MIN TEMP:  68; 6HR MAX TEMP:  79;

JAFFREY        CLEAR     76  62  62 VRB3      29.96R
6HR MIN TEMP:  76; 6HR MAX TEMP:  83;

KEENE          CLEAR     73  61  64 S6        29.94R
LEBANON        CLEAR     70  63  78 CALM      29.93R
6HR MIN TEMP:  70; 6HR MAX TEMP:  86;

MT WASHINGTON  FOG       48  48 100 W62G72      N/A  VSB 1/8
6HR MIN TEMP:  49; 6HR MAX TEMP:  53; 6HR PCP:  0.01;

$$

VTZ005-007-008-010100-
VERMONT

CITY           SKY/WX    TMP DP  RH WIND       PRES   REMARKS
ST JOHNSBURY     N/A     72  61  68 MISG      29.94R
MONTPELIER     CLEAR     69  61  75 W8        30.01R
BURLINGTON     PTCLDY    74  63  68 N6        29.96R
$$

MAZ007-012-024-CTZ003-RIZ002-NYZ038-NYZ072-010100-
SOUTHERN NEW ENGLAND AND NY

CITY           SKY/WX    TMP DP  RH WIND       PRES   REMARKS
BOSTON         PTCLDY    84  61  45 W12       29.90R
WORCESTER      CLEAR     75  63  66 W9        29.97R
NANTUCKET      PTCLDY    73  69  87 W13       29.93R
PROVIDENCE     PTCLDY    80  67  64 SW7       29.92R
HARTFORD       PTCLDY    77  68  73 NW6       29.93R
ALBANY         PTCLDY    79  62  56 NW9       29.97R
NEW YORK CITY  MOCLDY    88  63  43 W10       29.95R
$$

ANZ081-ANZ082-ANZ150-NHZ014-MEZ023>029-010100-
COASTAL MARINE OBSERVATIONS

STATION/POSITION TIME  TEMP    WIND        PRES    WAVE
                       AIR SEA DIR/SP/G            HT/PER
                 (UTC) (F)     (DEG/KT/KT) (MB)    (FT/S)
MOUNT DESERT ROC 0000   61     250/ 19/ 19 1009.9R
MATINICUS ROCK   0000          270/ 18/ 18 1009.9R
ISLE OF SHOALS   0000   81     280/ 12/ 12 1011.2R
JEFFREYS LEDGE   2303      69                N/A     2/11
CASHES LEDGE BUO 2350   71                 1010.5R   2/ 9
GEORGES BANK BUO 2350   70 68  270/ 12/ 14 1012.2R   3/ 9
$$

.............KEY..............
   WCI - WIND CHILL
   TC  - TEMPERATURE IN CELSIUS
   VSB - VISIBILITY IN MILES
   HX  - HEAT INDEX
   FAIR- INDICATES FEW OR NO CLOUDS BELOW 12,000 FT, WITH NO
         SIGNIFICANT WEATHER AND/OR OBSTRUCTIONS TO VISIBILITY.





USA.gov is the U.S. government's official web portal to all federal, state and local government web resources and services.